Location: Unnamed
(25.2826°S, 57.6099°W)
Time: 23:56:26
(UTC-04:00)

Envisat - Pass Details

Date: 23 January 2026
Orbit: 761 x 763 km, 98.4° (Epoch: 18 February)

Event Time Altitude Azimuth Distance (km) Brightness Sun altitude
Exits shadow 01:43:23 18° 179° (S) 1,810 5.4 -39.0°
Drops below altitude 10° 01:44:42 10° 183° (S) 2,315 6.0 -38.8°
Sets 01:47:03 0° 186° (S) 3,247 6.8 -38.5°
